Effective Sunday, March 17, 2024, the National Weather Service National Data Buoy Center will discontinue its Dial-A-Buoy Interactive Voice Response system. For more information, see Service Change Notice 24-06 (PDF).

Station EPTT2 - 8771013 - Eagle Point, TX Image indicating link to RSS feed of recent meteorological observations for station EPTT2


Conditions at EPTT2 as of
(4:54 pm CST)
2254 GMT on 02/27/2024:
     

Click on the graph icon in the table below to see a time series plot of the last five days of that observation.

5-day plot - Atmospheric Pressure Atmospheric Pressure (PRES):29.75 in
5-day plot - Wind Speed at 10 Meters Wind Speed at 10 meters (WSPD10M): 19.4 kts
5-day plot - Wind Speed at 20 Meters Wind Speed at 20 meters (WSPD20M): 21.4 kts
Previous observations
TIME
(CST)
5-day plot - Wind Direction
WDIR
 
5-day plot - Wind Speed
WSPD
kts
5-day plot - Wind Gust
GST
kts
5-day plot - Wave Height
WVHT
ft
5-day plot - Dominant Wave Period
DPD
sec
5-day plot - Average Wave Period
APD
sec
5-day plot - Mean Wave Direction
MWD
 
5-day plot - Atmospheric Pressure
PRES
in
5-day plot - Pressure Tendency
PTDY
in
5-day plot - Air Temperature
ATMP
°F
5-day plot - Water Temperature
WTMP
°F
5-day plot - Dew Point
DEWP
°F
5-day plot - Salinity
SAL
psu
5-day plot - Visibility
VIS
nmi
5-day plot - Tide (above MLLW)
TIDE
ft
2024-02-27 04:48 pmSSW 19.0 22.0----29.75- 76.1 70.2----
2024-02-27 04:42 pm S 18.1 20.0----29.75- 76.1 70.0----
2024-02-27 04:36 pm S 15.9 20.0----29.75- 75.9 70.0----
2024-02-27 04:30 pm S 17.1 19.0----29.75- 76.1 70.0----
2024-02-27 04:24 pmSSW 15.9 19.0----29.76- 76.3 70.0----
2024-02-27 04:18 pmSSW 18.1 22.0----29.76- 76.5 70.0----
2024-02-27 04:12 pmSSW 19.0 22.0----29.75- 76.3 70.0----
2024-02-27 04:06 pm S 17.1 22.0----29.75- 76.3 70.0----
2024-02-27 04:00 pm S 20.0 22.9----29.74-0.06 76.3 70.0----
2024-02-27 03:54 pm S 17.1 22.0----29.74- 76.3 70.0----
2024-02-27 03:48 pm S 19.0 22.9----29.74- 76.3 70.0----
2024-02-27 03:42 pm S 18.1 22.0----29.75- 76.5 70.0----
2024-02-27 03:36 pmSSW 19.0 22.9----29.75- 76.6 70.0----
2024-02-27 03:30 pmSSW 18.1 21.0----29.75- 76.5 70.0----
2024-02-27 03:24 pm S 15.0 21.0----29.75- 76.5 70.0----
2024-02-27 03:18 pm S 18.1 24.1----29.75- 76.5 69.8----
2024-02-27 03:12 pm S 19.0 21.0----29.75- 76.6 69.8----
2024-02-27 03:06 pm S 19.0 22.9----29.76- 76.6 69.8----
2024-02-27 03:00 pm S 17.1 25.1----29.76-0.08 76.5 69.8----
2024-02-27 02:54 pm S 19.0 24.1----29.76- 76.5 69.8----
2024-02-27 02:48 pm S 19.0 22.9----29.76- 76.5 69.8----
2024-02-27 02:42 pm S 20.0 24.1----29.76- 76.8 69.8----
2024-02-27 02:36 pm S 19.0 25.1----29.77- 76.8 69.8----
2024-02-27 02:30 pm S 20.0 25.1----29.77- 76.8 69.8----
2024-02-27 02:24 pm S 19.0 24.1----29.77- 76.8 69.8----
2024-02-27 02:18 pm S 21.0 25.1----29.77- 76.6 69.8----
2024-02-27 02:12 pm S 18.1 22.9----29.77- 76.8 69.8----
2024-02-27 02:06 pmSSW 19.0 24.1----29.77- 76.8 69.6----
2024-02-27 02:00 pm S 20.0 22.9----29.78-0.08 76.6 69.6----
2024-02-27 01:54 pm S 20.0 25.1----29.78- 77.0 69.6----
2024-02-27 01:48 pm S 21.0 25.1----29.78- 77.0 69.6----
2024-02-27 01:42 pm S 19.0 22.9----29.78- 77.0 69.6----
2024-02-27 01:36 pm S 17.1 22.9----29.78- 76.6 69.6----
2024-02-27 01:30 pm S 22.0 25.1----29.79- 76.8 69.4----
2024-02-27 01:24 pm S 18.1 25.1----29.79- 76.6 69.4----
2024-02-27 01:18 pmSSW 19.0 26.0----29.80- 76.5 69.4----
2024-02-27 01:12 pm S 22.0 28.0----29.80- 76.5 69.4----
2024-02-27 01:06 pm S 19.0 22.9----29.80- 76.5 69.4----
2024-02-27 01:00 pmSSW 19.0 24.1----29.80-0.05 76.5 69.4----
2024-02-27 12:54 pm S 20.0 28.0----29.80- 76.6 69.3----
2024-02-27 12:48 pm S 22.0 28.0----29.81- 76.8 69.3----
2024-02-27 12:42 pm S 22.0 28.0----29.81- 77.0 69.3----
2024-02-27 12:36 pm S 22.0 26.0----29.82- 77.0 69.3----
2024-02-27 12:30 pm S 22.0 25.1----29.82- 76.8 69.3----
2024-02-27 12:24 pm S 21.0 25.1----29.82- 76.8 69.3----
2024-02-27 12:18 pm S 19.0 24.1----29.82- 76.6 69.1----
2024-02-27 12:12 pm S 19.0 22.0----29.83- 76.6 69.1----
2024-02-27 12:06 pm S 18.1 24.1----29.83- 76.6 69.1----
2024-02-27 12:00 pm S 19.0 25.1----29.84-0.02 76.3 68.9----
2024-02-27 11:54 am S 19.0 27.0----29.84- 76.1 68.9----
2024-02-27 11:48 am S 18.1 22.9----29.84- 76.1 68.9----
2024-02-27 11:42 am S 19.0 24.1----29.84- 76.1 68.7----
2024-02-27 11:36 am S 19.0 25.1----29.85- 76.1 68.7----
2024-02-27 11:30 amSSW 22.0 26.0----29.85- 76.3 68.7----
2024-02-27 11:24 amSSW 24.1 28.9----29.85- 76.5 68.5----
2024-02-27 11:18 amSSW 19.0 22.9----29.85- 76.1 68.5----
2024-02-27 11:12 amSSW 19.0 22.0----29.85- 75.9 68.5----
2024-02-27 11:06 amSSW 19.0 25.1----29.85- 75.7 68.5----
2024-02-27 11:00 amSSW 19.0 25.1----29.85+0.02 75.6 68.4----
2024-02-27 10:54 amSSW 20.0 26.0----29.85- 75.4 68.4----
2024-02-27 10:48 amSSW 20.0 26.0----29.85- 75.4 68.4----
2024-02-27 10:42 amSSW 20.0 25.1----29.85- 75.2 68.4----
2024-02-27 10:36 amSSW 20.0 26.0----29.85- 75.2 68.2----
2024-02-27 10:30 amSSW 20.0 27.0----29.85- 75.0 68.2----
2024-02-27 10:24 am S 19.0 24.1----29.85- 75.0 68.2----
2024-02-27 10:18 am S 18.1 22.9----29.85- 74.8 68.2----
2024-02-27 10:12 amSSW 19.0 22.9----29.85- 75.0 68.2----
2024-02-27 10:06 am S 21.0 25.1----29.85- 74.8 68.0----
2024-02-27 10:00 amSSW 20.0 22.0----29.85+0.04 74.8 68.0----
2024-02-27 09:54 am S 20.0 22.9----29.85- 74.8 68.0----
2024-02-27 09:48 amSSW 17.1 20.0----29.85- 74.8 68.0----
2024-02-27 09:42 amSSW 15.9 22.0----29.86- 74.8 68.0----
2024-02-27 09:36 amSSW 17.1 21.0----29.85- 74.7 68.0----
2024-02-27 09:30 amSSW 15.9 20.0----29.86- 74.5 68.0----
2024-02-27 09:24 amSSW 15.9 19.0----29.86- 74.3 68.0----
2024-02-27 09:18 amSSW 17.1 22.9----29.86- 74.3 67.8----
2024-02-27 09:12 amSSW 15.9 20.0----29.86- 74.1 67.8----
2024-02-27 09:06 amSSW 15.0 22.9----29.86- 73.9 67.8----
2024-02-27 09:00 amSSW 17.1 21.0----29.86+0.04- 67.8----
2024-02-27 08:54 amSSW 15.0 20.0----29.85-- 67.8----
2024-02-27 08:48 amSSW 15.0 21.0----29.85- 73.8 67.8----
2024-02-27 08:42 amSSW 15.0 18.1----29.86- 73.6 67.8----
2024-02-27 08:36 amSSW 15.9 19.0----29.85- 73.4 67.8----
2024-02-27 08:30 amSSW 14.0 19.0----29.85- 73.4 67.8----
2024-02-27 08:24 amSSW 19.0 24.1----29.85- 73.4 67.8----
2024-02-27 08:18 amSSW 15.9 19.0----29.84- 73.4 67.8----
2024-02-27 08:12 amSSW 15.0 17.1----29.84- 73.4 67.8----
2024-02-27 08:06 amSSW 15.9 20.0----29.83- 73.4 67.8----
2024-02-27 08:00 amSSW 15.0 20.0----29.84+0.01 73.4 67.8----
2024-02-27 07:54 amSSW 15.0 20.0----29.83- 73.6 67.8----
2024-02-27 07:48 amSSW 15.9 22.9----29.83- 73.4 67.8----
2024-02-27 07:42 amSSW 18.1 22.0----29.83- 73.6 67.8----
2024-02-27 07:36 amSSW 17.1 24.1----29.83- 73.6 67.8----
2024-02-27 07:30 amSSW 19.0 22.9----29.83- 73.8 67.8----
2024-02-27 07:24 amSSW 19.0 24.1----29.82- 73.8 67.8----
2024-02-27 07:18 amSSW 20.0 22.9----29.82- 73.8 67.8----
2024-02-27 07:12 am S 18.1 24.1----29.82- 73.6 67.8----
2024-02-27 07:06 amSSW 21.0 26.0----29.82- 73.6 67.8----
2024-02-27 07:00 am S 19.0 22.0----29.81-0.03 73.4 67.8----
2024-02-27 06:54 amSSW 19.0 22.0----29.82- 73.4 67.8----
2024-02-27 06:48 am S 19.0 26.0----29.81- 73.4 67.8----
2024-02-27 06:42 amSSW 19.0 25.1----29.81- 73.4 67.8----
2024-02-27 06:36 am S 18.1 22.9----29.81- 73.2 67.8----
2024-02-27 06:30 amSSW 19.0 22.9----29.81- 73.2 67.6----
2024-02-27 06:24 am S 20.0 22.9----29.81- 73.0 67.6----
2024-02-27 06:18 amSSW 17.1 21.0----29.82- 73.0 67.6----
2024-02-27 06:12 am S 18.1 22.9----29.81- 73.2 67.6----
2024-02-27 06:06 am S 19.0 24.1----29.81- 73.2 67.6----
2024-02-27 06:00 amSSW 20.0 24.1----29.81-0.03 73.2 67.6----
2024-02-27 05:54 amSSW 19.0 22.9----29.81- 73.2 67.6----
2024-02-27 05:48 amSSW 18.1 25.1----29.81- 73.0 67.6----
2024-02-27 05:42 amSSW 18.1 21.0----29.81- 73.0 67.6----
2024-02-27 05:36 am S 17.1 21.0----29.82- 73.2 67.6----
2024-02-27 05:30 am S 19.0 21.0----29.82- 73.2 67.8----
2024-02-27 05:24 amSSW 15.0 18.1----29.83- 73.4 67.8----
2024-02-27 05:18 amSSW 15.0 20.0----29.82- 73.4 67.8----
2024-02-27 05:12 am S 17.1 20.0----29.82- 73.4 67.8----
2024-02-27 05:06 amSSW 15.9 18.1----29.82- 73.4 67.8----
2024-02-27 05:00 amSSW 15.0 19.0----29.83-0.04- 67.8----
2024-02-27 04:54 amSSW 14.0 19.0----29.83-- 67.8----
2024-02-27 04:48 am S 15.0 19.0----29.83- 73.4 67.8----
2024-02-27 04:42 am S 14.0 19.0----29.83- 73.4 67.8----
2024-02-27 04:36 amSSW 17.1 19.0----29.83- 73.6 68.0----
2024-02-27 04:30 amSSW 15.9 21.0----29.83- 73.6 68.0----
2024-02-27 04:24 amSSW 17.1 20.0----29.83- 73.8 68.0----
2024-02-27 04:18 amSSW 15.0 18.1----29.83- 73.8 68.0----
2024-02-27 04:12 amSSW 13.0 15.0----29.84- 73.8 68.0----
2024-02-27 04:06 amSSW 13.0 15.9----29.84- 73.8 68.0----
2024-02-27 04:00 amSSW 15.9 21.0----29.84-0.05 73.9 68.0----
2024-02-27 03:54 amSSW 13.0 19.0----29.84- 73.9 68.0----
2024-02-27 03:48 amSSW 13.0 19.0----29.84- 73.9 68.0----
2024-02-27 03:42 amSSW 17.1 21.0----29.84- 73.9 68.0----
2024-02-27 03:36 amSSW 18.1 20.0----29.84- 73.9 68.0----
2024-02-27 03:30 amSSW 17.1 20.0----29.83- 73.9 68.0----
2024-02-27 03:24 amSSW 15.0 20.0----29.83- 73.8 68.0----
2024-02-27 03:18 amSSW 15.9 19.0----29.84- 73.8 68.0----
2024-02-27 03:12 amSSW 17.1 19.0----29.84- 73.8 68.0----
2024-02-27 03:06 amSSW 15.0 18.1----29.84- 73.6 68.0----
2024-02-27 03:00 amSSW 15.0 19.0----29.84-0.04 73.6 68.0----
2024-02-27 02:54 amSSW 14.0 15.9----29.84- 73.6 68.0----
2024-02-27 02:48 amSSW 12.0 15.0----29.85- 73.4 68.0----
2024-02-27 02:42 amSSW 13.0 17.1----29.85- 73.6 68.0----
2024-02-27 02:36 amSSW 14.0 18.1----29.85- 73.6 68.0----
2024-02-27 02:30 amSSW 15.0 18.1----29.85- 73.6 68.0----
2024-02-27 02:24 amSSW 15.0 15.9----29.85- 73.6 68.0----
2024-02-27 02:18 amSSW 14.0 18.1----29.85- 73.6 68.0----
2024-02-27 02:12 amSSW 14.0 17.1----29.86- 73.6 68.0----
2024-02-27 02:06 amSSW 15.9 19.0----29.87- 73.8 68.0----
2024-02-27 02:00 amSSW 15.0 19.0----29.87-0.04 73.8 68.0----
2024-02-27 01:54 amSSW 15.9 19.0----29.87- 73.8 68.2----
2024-02-27 01:48 amSSW 17.1 21.0----29.86- 73.8 68.2----
2024-02-27 01:42 amSSW 15.9 21.0----29.87- 73.9 68.2----
2024-02-27 01:36 amSSW 17.1 22.0----29.87- 73.8 68.2----
2024-02-27 01:30 amSSW 15.9 19.0----29.87- 73.8 68.2----
2024-02-27 01:24 amSSW 15.9 18.1----29.88- 73.8 68.2----
2024-02-27 01:18 amSSW 14.0 15.9----29.88- 73.8 68.2----
2024-02-27 01:12 amSSW 13.0 18.1----29.88- 73.8 68.2----
2024-02-27 01:06 amSSW 13.0 17.1----29.89- 73.6 68.2----
2024-02-27 01:00 amSSW 14.0 15.9----29.89-0.01 73.6 68.2----
2024-02-27 12:54 amSSW 12.0 17.1----29.88- 73.4 68.2----
2024-02-27 12:48 amSSW 15.0 17.1----29.88- 73.4 68.2----
2024-02-27 12:42 amSSW 15.9 19.0----29.88- 73.4 68.2----
2024-02-27 12:36 amSSW 15.9 19.0----29.88- 73.4 68.2----
2024-02-27 12:30 amSSW 15.9 20.0----29.88- 73.6 68.2----
2024-02-27 12:24 amSSW 15.0 20.0----29.88- 73.6 68.2----
2024-02-27 12:18 amSSW 17.1 20.0----29.88- 73.6 68.2----
2024-02-27 12:12 amSSW 15.0 19.0----29.88- 73.6 68.2----
2024-02-27 12:06 amSSW 15.9 19.0----29.88- 73.8 68.2----
2024-02-27 12:00 amSSW 15.9 17.1----29.89-0.01 73.8 68.2----
2024-02-26 11:54 pmSSW 15.0 20.0----29.89- 73.8 68.2----
2024-02-26 11:48 pmSSW 15.0 18.1----29.89- 73.9 68.2----
2024-02-26 11:42 pmSSW 15.9 18.1----29.90- 73.9 68.2----
2024-02-26 11:36 pmSSW 15.9 20.0----29.90- 73.9 68.2----
2024-02-26 11:30 pmSSW 15.0 19.0----29.90- 73.9 68.2----
2024-02-26 11:24 pmSSW 15.0 19.0----29.91- 73.9 68.2----
2024-02-26 11:18 pmSSW 15.9 21.0----29.90- 74.1 68.2----
2024-02-26 11:12 pmSSW 17.1 21.0----29.91- 74.1 68.2----
2024-02-26 11:06 pmSSW 15.9 22.0----29.91- 74.1 68.2----
2024-02-26 11:00 pmSSW 20.0 25.1----29.90+0.01 74.5 68.2----
2024-02-26 10:54 pmSSW 19.0 22.9----29.90- 74.5 68.2----
2024-02-26 10:48 pm S 19.0 25.1----29.90- 74.7 68.2----
2024-02-26 10:42 pm S 21.0 27.0----29.90- 74.8 68.2----
2024-02-26 10:36 pm S 19.0 22.0----29.90- 74.5 68.2----
2024-02-26 10:30 pm S 21.0 25.1----29.90- 74.7 68.2----
2024-02-26 10:24 pm S 19.0 24.1----29.89- 74.3 68.2----
2024-02-26 10:18 pm S 19.0 22.0----29.89- 74.3 68.2----
2024-02-26 10:12 pm S 17.1 20.0----29.89- 74.3 68.2----
2024-02-26 10:06 pm S 18.1 22.9----29.89- 74.5 68.2----
2024-02-26 10:00 pm S 18.1 22.0----29.90+0.00 74.3 68.2----
2024-02-26 09:54 pm S 20.0 22.9----29.90- 74.3 68.2----
2024-02-26 09:48 pm S 19.0 24.1----29.90- 74.1 68.2----
2024-02-26 09:42 pm S 20.0 24.1----29.90- 74.3 68.2----
2024-02-26 09:36 pm S 21.0 24.1----29.90- 74.3 68.0----
2024-02-26 09:30 pm S 20.0 22.9----29.90- 74.3 68.0----
2024-02-26 09:24 pm S 20.0 25.1----29.90- 74.3 68.0----
2024-02-26 09:18 pm S 21.0 24.1----29.90- 74.5 68.2----
2024-02-26 09:12 pm S 20.0 22.0----29.90- 74.5 68.2----
2024-02-26 09:06 pm S 20.0 22.9----29.90- 74.5 68.2----
2024-02-26 09:00 pm S 20.0 25.1----29.90+0.00 74.7 68.2----
2024-02-26 08:54 pm S 19.0 24.1----29.89- 74.7 68.2----
2024-02-26 08:48 pm S 19.0 22.0----29.89- 74.5 68.2----
2024-02-26 08:42 pm S 18.1 21.0----29.89- 74.5 68.2----
2024-02-26 08:36 pm S 18.1 21.0----29.90- 74.5 68.2----
2024-02-26 08:30 pm S 18.1 22.0----29.89- 74.3 68.0----
2024-02-26 08:24 pm S 17.1 21.0----29.90- 74.3 68.0----
2024-02-26 08:18 pm S 17.1 20.0----29.90- 74.5 68.0----
2024-02-26 08:12 pm S 17.1 20.0----29.90- 74.3 68.0----
2024-02-26 08:06 pm S 15.9 20.0----29.90- 74.3 68.0----
2024-02-26 08:00 pm S 15.9 20.0----29.89+0.00- 68.0----
2024-02-26 07:54 pm S 15.9 20.0----29.89-- 68.0----
2024-02-26 07:48 pm S 17.1 21.0----29.89-- 68.0----
2024-02-26 07:42 pm S 17.1 19.0----29.89-- 68.0----
2024-02-26 07:36 pm S 15.9 18.1----29.89-- 68.0----
2024-02-26 07:30 pm S 15.0 18.1----29.89- 74.3 68.0----
2024-02-26 07:24 pm S 15.9 21.0----29.89- 74.5 68.0----
2024-02-26 07:18 pm S 17.1 19.0----29.90- 74.5 68.0----
2024-02-26 07:12 pm S 19.0 22.0----29.90- 74.5 68.0----
2024-02-26 07:06 pm S 17.1 19.0----29.90- 74.3 68.0----
2024-02-26 07:00 pm S 17.1 19.0----29.90+0.00 74.3-----
2024-02-26 06:54 pm S 15.0 20.0----29.90- 74.1-----
2024-02-26 06:48 pmSSW 14.0 19.0----29.90- 74.1 68.0----
2024-02-26 06:42 pmSSW 15.9 18.1----29.90- 74.1 68.0----
2024-02-26 06:36 pmSSW 15.9 19.0----29.90- 74.3 68.0----
2024-02-26 06:30 pmSSW 15.0 18.1----29.89-------
2024-02-26 06:24 pmSSW 14.0 18.1----29.89-------
2024-02-26 06:18 pmSSW 15.0 18.1----29.90- 74.3 68.0----
2024-02-26 06:12 pmSSW 15.0 17.1----29.90- 74.3 68.0----
2024-02-26 06:06 pmSSW 15.0 17.1----29.90- 74.3 68.0----
2024-02-26 06:00 pm S 15.0 19.0----29.90+0.00 74.3 68.0----
2024-02-26 05:54 pm S 17.1 20.0----29.90- 74.7 68.0----
2024-02-26 05:48 pmSSW 15.9 19.0----29.90- 74.7 67.8----
2024-02-26 05:42 pm S 15.0 20.0----29.90- 74.7 67.8----
2024-02-26 05:36 pm S 15.9 21.0----29.89- 74.7 67.8----
2024-02-26 05:30 pm S 17.1 20.0----29.89-------
2024-02-26 05:24 pm S 17.1 20.0----29.89-------
2024-02-26 05:18 pmSSW 19.0 22.0----29.89- 75.2 67.8----
2024-02-26 05:12 pm S 17.1 21.0----29.89- 75.2 67.8----
2024-02-26 05:06 pm S 19.0 22.0----29.89- 75.4 67.8----
2024-02-26 05:00 pm S 19.0 21.0----29.89-0.05 75.4 67.8----
2024-02-26 04:54 pm S 17.1 21.0----29.89- 75.6 67.8----